Terminal Aerodrome Forecast
Issued by NWS Portland, OR

Home | Current Version | Previous Version | Text Only | Print | Product List | Glossary On
Versions: 1 2 3 4 5 6 7 8 9 10 11 12 13 14 15 16 17 18 19 20 21 22 23 24 25 26 27 28 29 30 31 32 33 34 35 36 37 38
000
FTUS46 KPQR 311135
TAFEUG
TAF
KEUG 311135Z 3112/0112 VRB03KT 1/2SM FG VV002
     FM311900 00000KT 2SM BR OVC004
     FM312200 02004KT 3SM BR BKN006
     FM010000 VRB04KT P6SM SCT250=

USA.gov is the U.S. government's official web portal to all federal, state and local government web resources and services.